"timestamp";"minute";"mean_h";"std_h";"mean_l";"std_l"
2019-10-31T23:00:56;1;-124.42847;2.8029997;-124.65837;2.773428
2019-10-31T23:05:56;1;-124.50674;2.7790258;-124.192085;2.8465757
2019-10-31T23:10:56;1;-124.644775;2.7479181;-125.19876;2.618569
2019-10-31T23:15:56;1;-124.63812;2.647795;-124.8538;2.5321767
2019-10-31T23:20:56;1;-123.691505;2.844186;-122.9613;3.0523388
2019-10-31T23:25:56;1;-123.81493;2.9464743;-123.54974;3.0634358
2019-10-31T23:30:56;1;-124.9222;2.9630563;-125.72284;2.7053046
2019-10-31T23:45:56;1;-124.81533;2.794406;-125.191;2.6763022
2019-10-31T23:50:56;1;-124.58804;2.6194592;-124.99298;2.544567
2019-10-31T23:55:56;1;-125.52533;2.5860562;-125.94121;2.4948473
2019-11-01T00:00:56;1;-125.0191;2.5713844;-125.140205;2.5606954
2019-11-01T00:05:56;1;-123.66342;2.9715874;-123.18694;3.1684377
2019-11-01T00:10:56;1;-125.073715;2.7782238;-125.1644;2.8721967
2019-11-01T00:15:56;1;-124.790436;2.6689563;-125.14369;2.6526506
2019-11-01T00:20:56;1;-124.6963;2.9306924;-124.61373;3.0848708
2019-11-01T00:25:56;1;-124.86976;2.7473283;-125.549194;2.526196
2019-11-01T00:30:56;1;-124.56772;2.9341447;-125.46883;2.682768
2019-11-01T00:35:56;1;-124.980576;2.6856003;-125.19778;2.704959
2019-11-01T00:40:56;1;-124.975296;2.701237;-125.45659;2.6254628
2019-11-01T00:45:56;1;-124.76251;2.798088;-125.37396;2.4897506
2019-11-01T00:50:56;1;-124.474945;2.7201347;-124.2529;2.8070385
2019-11-01T00:55:56;1;-124.96927;2.7765393;-125.12643;2.77406
2019-11-01T01:00:56;1;-124.45341;2.67022;-125.266975;2.4624949
2019-11-01T01:05:56;1;-124.87549;2.6720262;-125.29068;2.4874978
2019-11-01T01:10:56;1;-124.66751;2.8228517;-125.18793;2.7408018
2019-11-01T01:15:56;1;-124.56733;2.7064006;-124.820564;2.6483917
2019-11-01T01:20:56;1;-124.700264;2.633733;-124.97758;2.570047
2019-11-01T01:25:56;1;-123.89692;2.7058063;-124.36027;2.5895314
2019-11-01T01:30:56;1;-124.41264;2.8764482;-125.248535;2.497354
2019-11-01T01:35:56;1;-124.33675;2.7895465;-124.19331;2.9026582
2019-11-01T01:40:56;1;-124.51225;2.7325153;-125.09603;2.513848
2019-11-01T01:45:56;1;-124.67751;2.7832818;-125.23719;2.7312663
2019-11-01T01:50:56;1;-124.608025;2.6717684;-124.96672;2.550243
2019-11-01T01:55:56;1;-124.64686;2.6942446;-125.27655;2.5356905
2019-11-01T02:00:56;1;-124.50213;2.704863;-124.70322;2.7938635
2019-11-01T02:05:56;1;-124.09438;2.738551;-124.26105;2.7231994
2019-11-01T02:10:56;1;-124.49817;2.7171836;-124.76958;2.70324
2019-11-01T02:15:56;1;-124.68681;2.7411532;-124.88861;2.613414
2019-11-01T02:20:56;1;-124.89917;2.6207101;-125.13689;2.5847547
2019-11-01T02:25:56;1;-125.107445;2.6484551;-125.28296;2.699801
2019-11-01T02:30:56;1;-124.82662;2.5339;-125.22137;2.5298133
2019-11-01T02:35:56;1;-124.48687;2.5190825;-124.790054;2.405786
2019-11-01T02:40:56;1;-124.523636;2.614777;-124.68817;2.7061338
2019-11-01T02:45:56;1;-124.568;2.830388;-123.578064;3.004932
2019-11-01T02:50:56;1;-124.79042;2.5986776;-125.12105;2.47743
2019-11-01T02:55:56;1;-124.95773;2.6765416;-125.45474;2.7199278
2019-11-01T03:00:56;1;-124.82991;2.6381245;-125.080986;2.5575383
2019-11-01T03:05:56;1;-124.87511;2.6010053;-125.06416;2.5831416
2019-11-01T03:10:56;1;-124.94602;2.5211213;-124.9611;2.5357933
2019-11-01T03:15:56;1;-125.06333;2.6102154;-125.33516;2.6819994
2019-11-01T03:20:56;1;-126.71329;2.7320077;-126.85768;2.7259312
2019-11-01T03:25:56;1;-125.81062;2.7509453;-126.245895;2.7457802
2019-11-01T03:30:56;1;-125.75064;2.5482767;-125.83737;2.5618472
2019-11-01T03:35:56;1;-125.01552;2.49807;-125.20663;2.4542196
2019-11-01T03:40:56;1;-124.779564;2.8381522;-126.27332;2.6552994
2019-11-01T03:45:56;1;-125.0451;2.656695;-124.79355;2.7014546
2019-11-01T03:50:56;1;-125.127304;2.8249934;-125.53826;2.5684452
2019-11-01T03:55:56;1;-126.0597;2.71736;-126.466;2.5723152
2019-11-01T04:00:56;1;-124.93977;2.6365306;-125.15708;2.5969288
2019-11-01T04:05:56;1;-124.167015;2.7134988;-123.68275;2.8498874
2019-11-01T04:10:56;1;-124.9231;2.5478745;-124.754745;2.5390966
2019-11-01T04:15:56;1;-124.78521;2.8463442;-125.57514;2.6843073
2019-11-01T04:20:56;1;-126.01405;2.5618985;-125.6683;2.532658
2019-11-01T04:25:56;1;-125.61519;2.547131;-125.6457;2.616713
2019-11-01T04:30:56;1;-126.98887;2.606107;-127.21364;2.5735323
2019-11-01T04:35:56;1;-126.53092;2.7241838;-125.87649;2.7423642
2019-11-01T04:40:56;1;-125.4213;2.6546142;-125.17254;2.6049325
2019-11-01T04:45:56;1;-125.35534;2.6774013;-125.52833;2.725924
2019-11-01T04:50:56;1;-125.705986;2.7438707;-125.26091;2.6162934
2019-11-01T04:55:56;1;-124.642204;2.724382;-125.057434;2.6007414
2019-11-01T05:00:56;1;-124.49544;2.587163;-124.834854;2.4962409
2019-11-01T05:05:56;1;-124.52361;2.6810377;-124.54072;2.731259
2019-11-01T05:10:56;1;-124.90884;2.5089626;-125.03161;2.4083004
2019-11-01T05:15:56;1;-124.81573;2.5888479;-124.7554;2.6255581
2019-11-01T05:20:56;1;-124.45398;2.6467867;-124.514435;2.6595447
2019-11-01T05:25:56;1;-117.68595;3.1127024;-115.067535;3.563399
2019-11-01T05:30:56;1;-125.69648;2.6813092;-125.83578;2.7645457
2019-11-01T05:35:56;1;-124.46053;2.6467447;-124.40056;2.7841365
2019-11-01T05:40:56;1;-124.43642;2.5313804;-124.31434;2.5638196
2019-11-01T05:45:56;1;-124.48948;2.5626316;-124.83661;2.5075424
2019-11-01T05:50:56;1;-123.90872;2.5846055;-124.1644;2.6034682
2019-11-01T05:55:56;1;-124.13925;2.6641371;-124.87384;2.5005608
2019-11-01T06:00:56;1;-123.041725;3.076555;-124.59232;2.5699296
2019-11-01T06:05:56;1;-122.5812;3.2694104;-124.143;2.6937075
2019-11-01T06:10:56;1;-122.1836;3.5332284;-124.79063;2.4380124
2019-11-01T06:15:56;1;-118.25728;5.2330036;-124.25903;2.6778133
2019-11-01T06:20:56;1;-117.91891;5.290338;-124.634514;2.4828763
2019-11-01T06:25:56;1;-116.52842;6.1841083;-124.88753;2.478339
2019-11-01T06:30:56;1;-114.96948;6.6658535;-124.72764;2.4447653
2019-11-01T06:35:56;1;-113.88886;7.2426734;-124.68754;2.5311875
2019-11-01T06:40:56;1;-94.978806;16.906292;-124.80917;2.6249683
2019-11-01T06:45:56;1;-94.34359;17.326532;-124.98235;2.6171935
2019-11-01T06:50:56;1;-98.753944;14.835637;-124.84704;2.4349174
2019-11-01T06:55:56;1;-99.25094;14.518539;-124.7171;2.6181333
2019-11-01T07:00:56;1;-85.33968;21.435608;-124.85946;2.6161246
2019-11-01T07:05:56;1;-89.77113;18.745771;-124.51174;2.5770628
2019-11-01T07:10:56;1;-89.80615;18.84124;-124.52688;2.5013623
2019-11-01T07:15:56;1;-89.34238;19.19812;-124.96325;2.354773
2019-11-01T07:20:56;1;-89.34665;19.081583;-124.3104;2.4383135
2019-11-01T07:25:56;1;-89.81951;19.031017;-124.926414;2.5519311
2019-11-01T07:30:56;1;-88.27211;19.956108;-124.725945;2.476298
2019-11-01T07:35:56;1;-93.8557;17.035894;-125.20467;2.3558319
2019-11-01T07:40:56;1;-88.46303;19.718224;-124.50157;2.629018
2019-11-01T07:45:56;1;-88.46541;18.926071;-124.39857;2.4143906
2019-11-01T07:50:56;1;-87.3049;20.04268;-124.8493;2.4342005
2019-11-01T07:55:56;1;-93.80628;16.844969;-124.31191;2.5094128
2019-11-01T08:00:56;1;-96.68923;15.431955;-124.86759;2.316585
2019-11-01T08:05:56;1;-92.59188;17.917353;-125.12783;2.585435
2019-11-01T08:10:56;1;-89.42256;19.69608;-125.4467;2.6035006
2019-11-01T08:15:56;1;-91.525566;18.529863;-125.36852;2.545952
2019-11-01T08:20:56;1;-91.04605;18.866554;-125.48739;2.4067457
2019-11-01T08:25:56;1;-89.24562;19.903008;-125.50568;2.4996903
2019-11-01T08:30:56;1;-91.15532;18.525667;-125.18574;2.6435375
2019-11-01T08:35:56;1;-88.261505;20.123972;-125.35703;2.5223956
2019-11-01T08:40:56;1;-90.94998;18.952461;-125.32733;2.500394
2019-11-01T08:45:56;1;-95.12775;16.512455;-125.01037;2.4659078
2019-11-01T08:50:56;1;-95.47325;16.315294;-124.96551;2.466605
2019-11-01T08:55:56;1;-91.33935;17.937128;-125.05505;2.522264
2019-11-01T09:00:56;1;-89.962555;18.758404;-125.38413;2.4677665
2019-11-01T09:05:56;1;-92.50917;17.593622;-125.50761;2.505858
2019-11-01T09:10:56;1;-92.139366;16.820274;-123.74555;2.4403672
2019-11-01T09:15:56;1;-92.455894;17.433996;-124.697586;2.5295482
2019-11-01T09:20:56;1;-93.1108;16.599628;-124.04113;2.535457
2019-11-01T09:25:56;1;-93.7079;16.748814;-125.19152;2.5795653
2019-11-01T09:30:56;1;-93.25546;17.153193;-125.39049;2.565268
2019-11-01T09:35:56;1;-93.97033;16.717476;-125.21652;2.4460318
2019-11-01T09:40:56;1;-95.87193;15.924846;-125.34837;2.5665758
2019-11-01T09:45:56;1;-96.13795;16.102913;-125.28667;2.4898589
2019-11-01T09:50:56;1;-95.100235;15.812774;-122.72889;2.7968187
2019-11-01T09:55:56;1;-94.791504;16.119987;-124.829666;2.5500615
2019-11-01T10:00:56;1;-88.11579;19.539612;-124.41301;2.448164
2019-11-01T10:05:56;1;-95.314575;15.979719;-124.48741;2.5152555
2019-11-01T10:10:56;1;-95.11686;15.957137;-124.48406;2.5360396
2019-11-01T10:15:56;1;-91.376526;18.662502;-125.66803;2.5298088
2019-11-01T10:20:56;1;-92.62455;17.421621;-125.013565;2.4576933
2019-11-01T10:25:56;1;-96.02602;15.874612;-125.05064;2.5111701
2019-11-01T10:30:56;1;-93.213524;16.99762;-125.372765;2.5768616
2019-11-01T10:35:56;1;-92.1542;17.854702;-125.04919;2.4851859
2019-11-01T10:40:56;1;-98.36751;14.6991415;-124.085175;3.073913
2019-11-01T10:45:56;1;-94.02076;16.39544;-125.059166;2.351639
2019-11-01T10:50:56;1;-95.54483;15.857905;-119.04259;5.164904
2019-11-01T10:55:56;1;-92.678116;17.662811;-122.03919;3.8317976
2019-11-01T11:00:56;1;-93.22637;17.025478;-124.68416;2.4368005
2019-11-01T11:05:56;1;-97.82024;14.845949;-123.50859;2.8449633
2019-11-01T11:10:56;1;-90.670235;17.611586;-123.91326;2.5437014
2019-11-01T11:15:56;1;-93.92654;16.284605;-118.72287;5.3069863
2019-11-01T11:20:56;1;-97.39347;15.302327;-125.32736;2.450256
2019-11-01T11:25:56;1;-95.3118;14.736014;-116.29353;6.6269007
2019-11-01T11:30:56;1;-100.5372;13.216255;-124.40891;2.5604756
2019-11-01T11:35:56;1;-96.56886;15.710759;-124.8542;2.3797336
2019-11-01T11:40:56;1;-88.41762;19.45571;-124.91299;2.5752177
2019-11-01T11:45:56;1;-93.876724;16.873297;-125.07112;2.4854555
2019-11-01T11:50:56;1;-94.33439;16.833275;-125.186455;2.5846875
2019-11-01T11:55:56;1;-96.22202;15.92721;-125.293;2.5023923
2019-11-01T12:00:56;1;-88.016426;19.966307;-125.71002;2.4621665
2019-11-01T12:05:56;1;-94.027534;16.641523;-120.34753;4.8592815
2019-11-01T12:10:56;1;-93.384575;16.484495;-119.47305;5.5663724
2019-11-01T12:15:56;1;-92.029076;18.153133;-125.02583;2.5615196
2019-11-01T12:20:56;1;-93.77073;17.56997;-125.49549;2.6683934
2019-11-01T12:25:56;1;-89.11124;20.008984;-125.43799;2.5312667
2019-11-01T12:30:56;1;-94.02671;17.514698;-121.00591;3.594948
2019-11-01T12:35:56;1;-92.91269;18.42912;-126.11025;2.691559
2019-11-01T12:40:56;1;-95.43317;17.744755;-127.965225;2.3577638
2019-11-01T12:45:56;1;-91.45655;19.426554;-126.335335;2.724205
2019-11-01T12:50:56;1;-90.050766;19.349579;-125.13599;2.6255414
2019-11-01T12:55:56;1;-95.40775;16.815784;-125.90235;2.605341
2019-11-01T13:00:56;1;-93.61336;17.733776;-125.30696;2.4221487
2019-11-01T13:05:56;1;-93.90475;17.520733;-125.33205;2.3889608
2019-11-01T13:10:56;1;-92.661476;17.491964;-124.90344;2.3905244
2019-11-01T13:15:56;1;-94.53644;16.663467;-122.42054;3.7025359
2019-11-01T13:20:56;1;-93.35081;17.260109;-122.56685;3.5374064
2019-11-01T13:25:56;1;-93.11351;17.337143;-124.52013;2.4163709
2019-11-01T13:30:56;1;-90.257225;18.704102;-124.66396;2.532754
2019-11-01T13:35:56;1;-94.57865;16.622063;-122.940445;3.3631725
2019-11-01T13:40:56;1;-94.00786;16.06797;-119.3176;5.495266
2019-11-01T13:45:56;1;-93.94499;16.87781;-124.98048;2.4716759
2019-11-01T13:50:56;1;-96.71342;14.805569;-121.160576;4.7605605
2019-11-01T13:55:56;1;-86.000046;21.390549;-125.557686;2.533166
2019-11-01T14:00:56;1;-94.84384;16.366594;-120.13385;4.3882394
2019-11-01T14:05:56;1;-89.20525;19.379587;-125.13874;2.424224
2019-11-01T14:10:56;1;-95.12225;17.145723;-126.345085;2.5744495
2019-11-01T14:15:56;1;-90.65301;18.299204;-116.73026;6.7823052
2019-11-01T14:20:56;1;-94.26478;17.193426;-123.71827;3.4434268
2019-11-01T14:25:56;1;-89.62794;18.573303;-120.68165;4.4652867
2019-11-01T14:30:56;1;-91.0844;17.503641;-119.00328;5.246952
2019-11-01T14:35:56;1;-90.61428;18.142515;-118.51554;5.290664
2019-11-01T14:40:56;1;-92.84736;16.950026;-117.524216;6.099662
2019-11-01T14:45:56;1;-82.02831;21.762857;-117.360115;6.3172083
2019-11-01T14:50:56;1;-91.85868;17.6;-117.68472;6.146514
2019-11-01T14:55:56;1;-91.88647;16.836863;-116.09372;6.904088
2019-11-01T15:00:56;1;-88.32676;19.998434;-124.71341;2.5942855
2019-11-01T15:05:56;1;-95.31893;15.673932;-118.16132;5.8607235
2019-11-01T15:10:56;1;-88.05814;18.882055;-122.30146;3.3566558
2019-11-01T15:15:56;1;-92.11338;17.799023;-124.45753;2.6574047
2019-11-01T15:20:56;1;-90.19693;18.928574;-125.16744;2.2939892
2019-11-01T15:25:56;1;-92.65747;16.915277;-123.42485;2.5777783
2019-11-01T15:30:56;1;-93.675644;16.410595;-122.894226;2.5783072
2019-11-01T15:35:56;1;-90.60357;18.093912;-123.449905;2.4463968
2019-11-01T15:40:56;1;-89.65137;18.664722;-124.00711;2.4521108
2019-11-01T15:45:56;1;-92.123146;17.319029;-123.68663;2.510773
2019-11-01T15:50:56;1;-87.75888;19.759338;-123.48529;2.6508288
2019-11-01T15:55:56;1;-89.14985;18.779509;-124.11117;2.45121
2019-11-01T16:00:56;1;-96.07929;15.495686;-123.91202;2.4999526
2019-11-01T16:05:56;1;-98.467606;14.650978;-124.26537;2.5163107
2019-11-01T16:10:56;1;-100.479706;13.020237;-123.375694;2.542871
2019-11-01T16:15:56;1;-121.01721;3.5970109;-123.59158;2.5430899
2019-11-01T16:20:56;1;-123.10812;2.699689;-123.83046;2.3749585
2019-11-01T16:25:56;1;-123.605675;2.4802911;-123.70403;2.486793
2019-11-01T16:30:56;1;-123.869934;2.6046546;-124.232414;2.4883165
2019-11-01T16:35:56;1;-124.063545;2.5205505;-124.19032;2.4869604
2019-11-01T16:40:56;1;-123.44826;2.5993276;-123.737915;2.4743783
2019-11-01T16:45:56;1;-123.7604;2.455251;-123.826225;2.483757
2019-11-01T16:50:56;1;-123.33091;2.5175042;-123.22996;2.5041401
2019-11-01T16:55:56;1;-123.11372;2.501849;-123.10624;2.4931781
2019-11-01T17:00:56;1;-123.12638;2.461509;-123.05574;2.5082364
2019-11-01T17:05:56;1;-123.12723;2.4287972;-123.179016;2.3909957
2019-11-01T17:10:56;1;-122.43801;2.4682772;-122.39699;2.4349694
2019-11-01T17:15:56;1;-122.6297;2.524442;-122.70638;2.438517
2019-11-01T17:20:56;1;-124.34079;2.5526547;-124.20334;2.6061392
2019-11-01T17:25:56;1;-124.2836;2.5115888;-124.32426;2.5906458
2019-11-01T17:30:56;1;-124.59473;2.524967;-124.712036;2.5027525
2019-11-01T17:35:56;1;-124.624;2.3605905;-124.52756;2.3750348
2019-11-01T17:40:56;1;-124.79144;2.5818975;-124.92865;2.589706
2019-11-01T17:45:56;1;-124.654305;2.4725718;-124.6393;2.4612238
2019-11-01T17:50:56;1;-123.69177;2.6405659;-124.57749;2.4234157
2019-11-01T17:55:56;1;-124.65163;2.5131392;-124.87322;2.5378206
2019-11-01T18:00:56;1;-124.75486;2.606147;-124.92653;2.5704188
2019-11-01T18:05:56;1;-124.29656;2.607094;-124.94886;2.414878
2019-11-01T18:10:56;1;-123.157036;2.9881902;-124.24141;2.660397
2019-11-01T18:15:56;1;-123.65048;2.9303935;-124.96195;2.3917835
2019-11-01T18:20:56;1;-124.05405;2.645204;-124.79314;2.4057803
2019-11-01T18:25:56;1;-123.18287;3.1015565;-124.785675;2.4480567
2019-11-01T18:30:56;1;-117.29941;5.689387;-124.44087;2.5481179
2019-11-01T18:35:56;1;-113.11149;7.572149;-124.43678;2.5640836
2019-11-01T18:40:56;1;-111.919075;7.8975825;-124.198616;2.5758154
2019-11-01T18:45:56;1;-108.75274;9.336946;-124.11695;2.4256094
2019-11-01T18:50:56;1;-107.98018;9.90141;-124.53474;2.5434258
2019-11-01T18:55:56;1;-109.67367;9.334751;-125.056885;2.3820207
2019-11-01T19:00:56;1;-113.38486;7.3906913;-124.5357;2.5297446
2019-11-01T19:05:56;1;-123.36127;2.966457;-124.579056;2.490505
2019-11-01T19:10:56;1;-124.67139;2.6086202;-125.12646;2.4845517
2019-11-01T19:15:56;1;-124.85101;2.4498684;-124.90468;2.458283
2019-11-01T19:20:56;1;-124.29875;2.4769359;-124.45718;2.469172
2019-11-01T19:25:56;1;-124.03225;2.5668166;-124.38772;2.5143323
2019-11-01T19:30:56;1;-123.84961;2.5716624;-124.10637;2.600436
2019-11-01T19:35:56;1;-121.65535;3.175267;-121.22638;2.9319208
2019-11-01T19:40:56;1;-124.386475;2.6072752;-124.79237;2.566494
2019-11-01T19:45:56;1;-124.3277;2.5498552;-124.375916;2.599505
2019-11-01T19:50:56;1;-124.418274;2.5799186;-124.6341;2.5603402
2019-11-01T19:55:56;1;-124.82544;2.554509;-125.040245;2.5245764
2019-11-01T20:00:56;1;-124.21482;2.5970845;-125.353806;2.308925
2019-11-01T20:05:56;1;-125.05238;2.5118017;-125.38663;2.4790876
2019-11-01T20:10:56;1;-125.70888;2.7956889;-126.665344;2.6417751
2019-11-01T20:15:56;1;-124.82181;2.7064095;-125.27154;2.4594371
2019-11-01T20:20:56;1;-124.33857;2.710026;-125.01575;2.5094059
2019-11-01T20:25:56;1;-125.00985;2.5794804;-125.296974;2.4469461
2019-11-01T20:30:56;1;-124.882454;2.604209;-124.96725;2.5655663
2019-11-01T20:35:56;1;-124.81629;2.4679513;-124.82246;2.5122266
2019-11-01T20:40:56;1;-125.23358;2.4524786;-125.17506;2.4033637
2019-11-01T20:45:56;1;-125.04052;2.5206087;-124.92278;2.5826569
2019-11-01T20:50:56;1;-125.20524;2.5785308;-125.34403;2.5652745
2019-11-01T20:55:56;1;-125.03986;2.4315233;-125.11563;2.479774
2019-11-01T21:00:56;1;-125.12293;2.5328293;-125.14687;2.5439146
2019-11-01T21:05:56;1;-124.77231;2.4867427;-124.76379;2.4922898
2019-11-01T21:10:56;1;-124.452774;2.5084589;-124.439156;2.6249084
2019-11-01T21:15:56;1;-124.750595;2.5219162;-125.02629;2.5221653
2019-11-01T21:20:56;1;-125.34017;2.4866502;-125.44653;2.4723613
2019-11-01T21:25:56;1;-124.830124;2.5981772;-125.229744;2.5361445
2019-11-01T21:30:56;1;-124.93708;2.5052824;-125.184975;2.5430515
2019-11-01T21:35:56;1;-125.02308;2.5155609;-125.04696;2.5032778
2019-11-01T21:40:56;1;-124.516754;2.6546638;-124.65234;2.6091337
2019-11-01T21:45:56;1;-124.20691;2.7047772;-125.08429;2.5233433
2019-11-01T21:50:56;1;-125.14978;2.5129128;-125.30978;2.5286305
2019-11-01T21:55:56;1;-125.233826;2.5224197;-125.41777;2.5159147
2019-11-01T22:00:56;1;-125.13333;2.51588;-125.28421;2.53436
2019-11-01T22:05:56;1;-125.17475;2.555756;-125.28351;2.553732
2019-11-01T22:10:56;1;-125.14332;2.509275;-125.26182;2.565014
2019-11-01T22:15:56;1;-124.45499;2.6732624;-123.9704;2.8407264
2019-11-01T22:20:56;1;-125.07855;2.441054;-125.1006;2.4215
2019-11-01T22:25:56;1;-125.30142;2.4961095;-125.25407;2.400368
2019-11-01T22:30:56;1;-125.00464;2.6109884;-125.354935;2.5288453
2019-11-01T22:35:56;1;-125.30083;2.4894311;-125.40512;2.4804242
2019-11-01T22:40:56;1;-125.276436;2.4521585;-125.37599;2.4998596
2019-11-01T22:45:56;1;-125.464134;2.496126;-125.482895;2.4939046
2019-11-01T22:50:56;1;-124.53926;2.5985186;-124.59428;2.6848967
2019-11-01T22:55:56;1;-124.61564;2.6123736;-124.329865;2.5665672
2019-11-01T23:00:56;1;-124.15078;2.5866377;-124.31641;2.5369554
2019-11-01T23:05:56;1;-125.308266;2.464786;-125.29078;2.4392588
2019-11-01T23:10:56;1;-124.72098;2.614717;-125.4818;2.497469
2019-11-01T23:15:56;1;-125.0913;2.5067716;-125.199554;2.5844972
2019-11-01T23:20:56;1;-125.04929;2.4899294;-125.16979;2.4641922
2019-11-01T23:25:56;1;-124.670944;2.5563378;-125.00899;2.4787123
2019-11-01T23:30:56;1;-124.439804;2.4733264;-124.47816;2.5971904
2019-11-01T23:35:56;1;-125.122215;2.5777652;-125.36053;2.498076
2019-11-01T23:40:56;1;-124.97966;2.4702363;-125.0147;2.4601724
2019-11-01T23:45:56;1;-125.016914;2.4763725;-125.27417;2.3948503
2019-11-01T23:50:56;1;-124.74431;2.5255198;-124.86989;2.4589448
2019-11-01T23:55:56;1;-125.306;2.5643914;-125.39151;2.556008
2019-11-02T00:00:56;1;-124.72092;2.5454693;-124.83987;2.5802915
2019-11-02T00:05:56;1;-124.69683;2.4557583;-124.81413;2.4384634
2019-11-02T00:10:56;1;-124.76564;2.586024;-124.75203;2.6469488
2019-11-02T00:15:56;1;-124.90966;2.4714365;-125.1257;2.391659
2019-11-02T00:20:56;1;-124.59459;2.6276352;-124.98969;2.593928
2019-11-02T00:25:56;1;-124.864525;2.505859;-125.004456;2.485779
2019-11-02T00:30:56;1;-125.1522;2.4884536;-125.373085;2.3942144
2019-11-02T00:35:56;1;-124.76033;2.531473;-124.90862;2.470894
2019-11-02T00:40:56;1;-124.594604;2.5475082;-124.35784;2.56838
2019-11-02T00:45:56;1;-124.366165;2.4666052;-124.3846;2.5084476
2019-11-02T00:50:56;1;-124.80157;2.4609432;-124.98832;2.4994678
2019-11-02T00:55:56;1;-124.881485;2.5304399;-124.9846;2.506258
2019-11-02T01:00:56;1;-124.81252;2.488202;-124.95313;2.453394
2019-11-02T01:05:56;1;-124.838005;2.5119908;-125.155846;2.6181014
2019-11-02T01:10:56;1;-124.88407;2.5180485;-124.93286;2.5921566
2019-11-02T01:15:56;1;-124.802055;2.491242;-124.95105;2.4928339
2019-11-02T01:20:56;1;-124.41638;2.515178;-124.556404;2.5000784
2019-11-02T01:25:56;1;-125.08104;2.4438999;-125.008804;2.370837
2019-11-02T01:30:56;1;-124.69685;2.493088;-124.85306;2.4305375
2019-11-02T01:35:56;1;-124.618164;2.577739;-124.820786;2.5005808
2019-11-02T01:40:56;1;-124.564255;2.5044715;-124.69731;2.4591396
2019-11-02T01:45:56;1;-124.82245;2.4641514;-124.980515;2.487929
2019-11-02T01:50:56;1;-124.00231;2.7840483;-124.95939;2.6279812
2019-11-02T01:55:56;1;-123.791695;2.5225546;-123.77002;2.47488
2019-11-02T02:00:56;1;-124.62497;2.5864198;-124.57028;2.5515382
2019-11-02T02:05:56;1;-124.85396;2.5129516;-124.84186;2.5586064
2019-11-02T02:10:56;1;-124.770744;2.53182;-124.85087;2.5026963
2019-11-02T02:15:56;1;-124.79028;2.606828;-124.93463;2.6310556
2019-11-02T02:20:56;1;-124.76708;2.5944483;-124.73024;2.5988226
2019-11-02T02:25:56;1;-124.34898;2.594028;-124.66385;2.3294802
2019-11-02T02:30:56;1;-124.44859;2.4868588;-124.560196;2.447443
2019-11-02T02:35:56;1;-124.622536;2.5421827;-124.85888;2.534154
2019-11-02T02:40:56;1;-124.91004;2.4719837;-124.81224;2.426079
2019-11-02T02:45:56;1;-124.48469;2.5051188;-124.579445;2.4691396
2019-11-02T02:50:56;1;-124.333336;2.4990933;-124.44937;2.548296
2019-11-02T02:55:56;1;-124.851006;2.5320842;-124.81628;2.533383
2019-11-02T03:00:56;1;-124.42546;2.540307;-124.88935;2.3688996
2019-11-02T03:05:56;1;-123.958405;2.4847133;-124.0462;2.4316356
2019-11-02T03:10:56;1;-124.004654;2.6061614;-124.203995;2.628875
2019-11-02T03:15:56;1;-124.80242;2.5141342;-124.75171;2.4772959
2019-11-02T03:20:56;1;-124.59299;2.417198;-124.84807;2.4221947
2019-11-02T03:25:56;1;-124.63585;2.4869926;-124.81695;2.43324
2019-11-02T03:30:56;1;-124.499176;2.454555;-124.55689;2.505628
2019-11-02T03:35:56;1;-124.60951;2.423935;-124.7298;2.32095
2019-11-02T03:40:56;1;-124.34528;2.4885054;-124.24345;2.5088136
2019-11-02T03:45:56;1;-124.51639;2.4556184;-124.621414;2.4896379
2019-11-02T03:50:56;1;-125.046646;2.5431795;-125.27589;2.5074158
2019-11-02T03:55:56;1;-125.00507;2.5683322;-125.139244;2.649167
2019-11-02T04:00:56;1;-125.44795;2.4480166;-125.42383;2.4264183
2019-11-02T04:05:56;1;-125.371445;2.4452567;-125.40698;2.5471501
2019-11-02T04:10:56;1;-125.453255;2.4882379;-125.57912;2.5095942
2019-11-02T04:15:56;1;-124.805405;2.4714236;-124.66154;2.4406729
2019-11-02T04:20:56;1;-124.540886;2.5632114;-124.64899;2.6199818
2019-11-02T04:25:56;1;-125.129005;2.5231202;-125.18643;2.4959066
2019-11-02T04:30:56;1;-123.252945;2.7178028;-122.11144;2.8226633
2019-11-02T04:35:56;1;-125.11894;2.536348;-125.23553;2.396957
2019-11-02T04:40:56;1;-125.1715;2.529612;-125.1322;2.4440448
2019-11-02T04:45:56;1;-125.14111;2.5532553;-125.06448;2.5286582
2019-11-02T04:50:56;1;-125.029144;2.5188615;-124.993195;2.4908233
2019-11-02T04:55:56;1;-124.454094;2.520871;-124.46056;2.5378335
2019-11-02T05:00:56;1;-124.937485;2.4333112;-124.878525;2.4685938
2019-11-02T05:05:56;1;-124.73416;2.506127;-125.007614;2.5499659
2019-11-02T05:10:56;1;-124.65304;2.470704;-124.55994;2.475924
2019-11-02T05:15:56;1;-124.72156;2.4499204;-124.69897;2.4971318
2019-11-02T05:20:56;1;-124.93697;2.5598943;-124.916084;2.5808172
2019-11-02T05:25:56;1;-124.625725;2.5814323;-125.18037;2.5741098
2019-11-02T05:30:56;1;-124.66845;2.506713;-124.66288;2.4560747
2019-11-02T05:35:56;1;-125.570724;2.4305274;-125.730156;2.488023
2019-11-02T05:40:56;1;-125.00115;2.5398211;-125.61752;2.4367216
2019-11-02T05:45:56;1;-124.92931;2.4811018;-125.4409;2.3629372
2019-11-02T05:50:56;1;-124.10491;2.5156527;-124.20468;2.4615507
2019-11-02T05:55:56;1;-123.90664;2.5941904;-124.19806;2.4913735
2019-11-02T06:00:56;1;-122.883675;3.4165862;-123.91171;3.1735067
2019-11-02T06:05:56;1;-121.69436;3.9051054;-124.93959;2.5608695
2019-11-02T06:10:56;1;-117.61699;5.71265;-124.922455;2.5805748
2019-11-02T06:15:56;1;-114.97641;6.885955;-125.0839;2.4914122
2019-11-02T06:20:56;1;-93.87402;17.541292;-125.321884;2.6141179
2019-11-02T06:25:56;1;-91.93304;18.499382;-125.175964;2.4429185
2019-11-02T06:30:56;1;-97.226204;15.600125;-124.66638;2.5408466